Date String (YYYY-MM-DD hh:mm:ss) UTC,Instrument flags,Ambient pressure (hPa),Sample flow (lpm),Bypass flow (lpm),Sample temperature (°C),Ambient temperature (°C),ASC tube jacket temperature (°C),LED temperature (°C),Box temperature (°C),Sample RH (%),Span deviation,Mass concentration (μg/m³),Mass concentration (μg/m³),Mass concentration (μg/m³)
DateTimeUTC,F1_M11,P_M11,Q1_M11,Q2_M11,T1_M11,T2_M11,T3_M11,T4_M11,T5_M11,U1_M11,ZSPAN_M11,X0_M11,X2_M11,X1_M11
2023-01-23 12:00:00,,0826.5,4.99,0.00,22.6,21.1,00.0,31.4,24.3,11.5,0000.0,0011.13,0007.64,0007.35
2023-01-23 12:01:00,,0826.5,5.00,0.00,22.6,21.1,00.0,31.4,24.3,11.5,0000.0,0010.88,0007.51,0007.19
2023-01-23 12:02:00,,0826.5,4.99,0.00,22.5,21.0,00.0,31.4,24.3,11.5,0000.0,0010.57,0007.31,0006.99
2023-01-23 12:03:00,,0826.4,5.00,0.00,22.5,21.0,00.0,31.4,24.3,11.5,0000.0,0010.44,0007.21,0006.89
2023-01-23 12:04:00,,0826.5,4.99,0.00,22.5,21.0,00.0,31.3,24.3,11.6,0000.0,0010.40,0007.16,0006.84
2023-01-23 12:05:00,,0826.5,5.02,0.00,22.5,21.4,00.0,31.3,24.3,11.6,0000.0,0010.42,0007.16,0006.83
2023-01-23 12:06:00,,0826.5,5.00,0.00,22.6,22.2,00.0,31.3,24.5,11.5,0000.0,0010.36,0007.15,0006.84
2023-01-23 12:07:00,,0826.5,5.00,0.00,22.7,22.6,00.0,31.4,24.7,11.5,0000.0,0010.31,0007.13,0006.83
2023-01-23 12:08:00,,0826.5,4.99,0.00,22.7,22.4,00.0,31.4,24.7,11.5,0000.0,0010.30,0007.13,0006.84
2023-01-23 12:09:00,,0826.5,5.00,0.00,22.7,22.1,00.0,31.4,24.7,11.5,0000.0,0010.38,0007.22,0006.94
2023-01-23 12:10:00,,0826.5,5.01,0.00,22.7,21.9,00.0,31.4,24.6,11.5,0000.0,0010.44,0007.32,0007.05
2023-01-23 12:11:00,,0826.5,5.00,0.00,22.7,21.7,00.0,31.4,24.6,11.6,-000.2,0010.68,0007.49,0007.21
2023-01-23 12:12:00,,0826.5,5.00,0.00,22.7,21.6,00.0,31.4,24.5,11.7,-000.7,0010.96,0007.75,0007.49
2023-01-23 12:13:00,,0826.5,5.01,0.00,22.7,21.5,00.0,31.4,24.5,11.8,-000.3,0011.46,0008.12,0007.85
2023-01-23 12:14:00,,0826.5,4.99,0.00,22.7,21.3,00.0,31.4,24.5,11.9,-000.4,0011.82,0008.43,0008.14
2023-01-23 12:15:00,,0826.5,5.01,0.00,22.7,21.2,00.0,31.4,24.5,11.9,0000.2,0012.29,0008.79,0008.48
2023-01-23 12:16:00,,0826.5,5.01,0.00,22.7,21.2,00.0,31.4,24.4,11.9,0000.2,0012.79,0009.13,0008.79
2023-01-23 12:17:00,,0826.5,5.01,0.00,22.7,21.2,00.0,31.4,24.4,11.9,0000.5,0013.25,0009.49,0009.14
2023-01-23 12:18:00,,0826.5,5.02,0.00,22.7,21.1,00.0,31.4,24.4,11.9,0000.5,0013.74,0009.83,0009.44
2023-01-23 12:19:00,,0826.6,5.00,0.00,22.6,21.1,00.0,31.4,24.3,11.9,0000.6,0014.15,0010.15,0009.77
2023-01-23 12:20:00,,0826.6,4.98,0.00,22.6,21.0,00.0,31.4,24.3,11.9,0000.9,0014.37,0010.34,0009.96
2023-01-23 12:21:00,,0826.6,4.98,0.00,22.6,21.0,00.0,31.4,24.3,12.0,0001.2,0014.75,0010.62,0010.20
2023-01-23 12:22:00,,0826.7,5.02,0.00,22.6,21.0,00.0,31.4,24.2,12.1,0000.8,0015.16,0010.92,0010.48
2023-01-23 12:23:00,,0826.7,5.03,0.00,22.5,20.9,00.0,31.4,24.2,12.1,0000.9,0015.43,0011.10,0010.65
2023-01-23 12:24:00,,0826.7,5.01,0.00,22.5,20.9,00.0,31.4,24.2,12.2,0000.5,0015.37,0011.11,0010.69
2023-01-23 12:25:00,,0826.7,5.01,0.00,22.5,20.9,00.0,31.4,24.2,12.2,0000.1,0015.64,0011.18,0010.74
2023-01-23 12:26:00,,0826.7,4.99,0.00,22.5,20.9,00.0,31.4,24.2,12.1,-000.1,0015.62,0011.15,0010.74
2023-01-23 12:27:00,,0826.7,5.00,0.00,22.5,20.9,00.0,31.4,24.2,12.1,0000.0,0015.35,0010.99,0010.61
2023-01-23 12:28:00,,0826.7,5.00,0.00,22.5,21.0,00.0,31.3,24.2,12.1,0000.0,0015.19,0010.88,0010.50
2023-01-23 12:29:00,,0826.7,5.00,0.00,22.5,21.4,00.0,31.3,24.3,12.1,0000.0,0015.03,0010.79,0010.42
2023-01-23 12:30:00,,0826.7,5.00,0.00,22.6,22.3,00.0,31.3,24.5,12.1,0000.0,0014.89,0010.70,0010.33
2023-01-23 12:31:00,,0826.7,4.99,0.00,22.7,22.7,00.0,31.3,24.7,12.0,0000.0,0014.93,0010.72,0010.35
2023-01-23 12:32:00,,0826.7,4.99,0.00,22.7,22.4,00.0,31.4,24.7,11.9,-000.2,0014.92,0010.72,0010.37
2023-01-23 12:33:00,,0826.7,5.01,0.00,22.7,22.2,00.0,31.4,24.6,11.9,0000.1,0014.83,0010.67,0010.33
2023-01-23 12:34:00,,0826.7,5.01,0.00,22.7,21.9,00.0,31.4,24.6,11.9,-000.6,0015.42,0010.69,0010.36
2023-01-23 12:35:00,,0826.7,5.00,0.00,22.7,21.7,00.0,31.4,24.5,12.0,-000.5,0016.20,0010.77,0010.41
2023-01-23 12:36:00,,0826.7,4.99,0.00,22.7,21.6,00.0,31.4,24.5,12.0,-000.2,0016.05,0010.61,0010.26
2023-01-23 12:37:00,,0826.7,5.01,0.00,22.7,21.5,00.0,31.4,24.5,12.1,-000.3,0015.81,0010.46,0010.12
2023-01-23 12:38:00,,0826.7,5.00,0.00,22.7,21.5,00.0,31.4,24.5,12.2,-000.6,0015.59,0010.26,0009.91
2023-01-23 12:39:00,,0826.7,5.00,0.00,22.7,21.5,00.0,31.5,24.5,12.3,-001.0,0015.23,0009.95,0009.60
2023-01-23 12:40:00,,0826.8,4.99,0.00,22.7,21.4,00.0,31.4,24.5,12.3,-001.0,0015.30,0009.60,0009.25
2023-01-23 12:41:00,,0826.8,5.00,0.00,22.7,21.4,00.0,31.5,24.5,12.3,-001.1,0015.18,0009.28,0008.95
2023-01-23 12:42:00,,0826.8,4.98,0.00,22.7,21.4,00.0,31.5,24.5,12.4,-001.6,0014.84,0008.99,0008.66
2023-01-23 12:43:00,,0826.8,5.00,0.00,22.7,21.4,00.0,31.5,24.5,12.4,-001.5,0014.29,0008.59,0008.28
2023-01-23 12:44:00,,0826.8,5.00,0.00,22.7,21.4,00.0,31.5,24.5,12.4,-001.2,0013.82,0008.22,0007.92
2023-01-23 12:45:00,,0826.8,5.01,0.00,22.7,21.3,00.0,31.5,24.5,12.4,-000.4,0012.91,0007.85,0007.53
2023-01-23 12:46:00,,0826.8,4.99,0.00,22.7,21.3,00.0,31.5,24.5,12.5,-000.8,0011.78,0007.47,0007.17
2023-01-23 12:47:00,,0826.8,5.00,0.00,22.7,21.3,00.0,31.4,24.4,12.5,-001.3,0011.68,0007.32,0007.04
2023-01-23 12:48:00,,0826.8,5.00,0.00,22.7,21.2,00.0,31.4,24.4,12.5,-001.2,0011.78,0007.28,0007.01
2023-01-23 12:49:00,,0827.2,5.01,0.00,22.7,21.2,00.0,31.4,24.4,12.5,-000.7,0011.99,0007.46,0007.21
2023-01-23 12:50:00,,0827.0,5.00,0.00,22.6,21.1,00.0,31.4,24.4,12.5,-001.0,0012.28,0007.73,0007.48
2023-01-23 12:51:00,,0827.0,4.99,0.00,22.6,21.1,00.0,31.4,24.4,12.5,-001.3,0012.22,0008.07,0007.79
2023-01-23 12:52:00,,0826.9,5.00,0.00,22.6,21.0,00.0,31.4,24.4,12.5,-001.4,0012.29,0008.31,0008.03
2023-01-23 12:53:00,,0826.8,5.01,0.00,22.6,21.1,00.0,31.4,24.3,12.5,-000.9,0012.61,0008.59,0008.31
2023-01-23 12:54:00,,0826.8,5.01,0.00,22.6,21.1,00.0,31.4,24.3,12.5,-001.0,0012.89,0008.82,0008.55
2023-01-23 12:55:00,,0827.0,4.99,0.00,22.6,21.0,00.0,31.4,24.3,12.6,-000.7,0013.23,0009.07,0008.77
2023-01-23 12:56:00,,0826.8,4.99,0.00,22.6,21.0,00.0,31.4,24.3,12.6,0000.1,0013.34,0009.17,0008.87
2023-01-23 12:57:00,,0826.8,4.98,0.00,22.6,21.0,00.0,31.4,24.3,12.7,0000.1,0013.30,0009.17,0008.88
2023-01-23 12:58:00,,0826.9,5.01,0.00,22.6,21.0,00.0,31.4,24.3,12.7,-000.0,0012.98,0009.18,0008.88
2023-01-23 12:59:00,,0826.9,5.00,0.00,22.5,21.0,00.0,31.3,24.3,12.7,0000.1,0013.24,0009.19,0008.88
